Temp
11 11 11 11 11 12 12 12 12 12 12 12 11 11 11 11 12 11 11 12 12 12 12 11 11 11 11 12 12 11 11 10 10 10 10 10 10 9 9 9 9 9 9 9 9
11 11 11 11 11 11 11 11 11 11 11 11 11 11 11 11 11 11 11 12 12 12 12 11 11 11 11 11 11 11 11 10 10 10 10 10 10 9 8 9 9 8 8 8 8
11 11 11 11 11 11 11 11 11 11 11 11 11 11 10 10 11 11 11 11 11 11 11 11 12 12 11 11 10 10 10 10 10 10 10 10 10 10 9 9 9 8 8 7 7
10 11 11 11 11 11 11 11 11 11 11 11 11 11 11 11 11 11 11 11 11 11 11 11 11 12 11 11 10 10 10 10 10 10 10 10 10 10 9 9 8 8 8 7 7
11 11 11 11 11 11 11 11 11 11 11 11 10 10 10 11 11 11 11 11 11 11 11 11 11 11 11 11 10 10 10 10 9 10 9 9 9 10 9 8 7 7 6 6 6
10 11 11 11 11 11 11 11 11 11 11 11 10 10 10 11 10 10 10 11 11 11 11 11 11 11 11 10 10 9 10 9 9 9 9 9 9 8 7 6 6 5 5 5 5
11 11 11 11 11 11 11 11 11 11 11 11 11 11 10 10 10 10 10 10 10 11 11 11 11 11 10 10 9 9 9 8 8 8 8 8 8 7 6 5 5 5 4 4 4
11 11 10 10 11 11 11 11 11 11 11 10 10 10 10 10 10 10 10 10 10 11 11 10 10 10 10 10 9 9 9 9 8 9 8 7 6 6 5 5 4 4 4 4 3
11 11 11 11 11 11 11 11 11 10 10 10 10 10 10 10 9 10 10 10 10 11 11 10 10 11 11 10 9 8 9 9 8 8 7 6 6 6 5 4 3 3 2 2 1
11 11 11 11 11 10 10 10 11 10 10 10 10 10 9 9 10 10 10 10 10 11 10 10 10 9 10 9 8 7 7 8 7 6 6 5 5 5 5 4 3 2 1 -1 -1
11 11 11 11 10 10 11 10 10 10 10 10 9 9 9 9 10 10 10 10 10 10 10 10 10 10 8 7 6 6 7 7 7 6 4 4 4 5 3 2 1 0 -1 -2 -3
12 11 11 11 11 10 10 10 10 10 10 9 9 9 9 9 9 9 10 10 10 10 9 9 9 8 7 7 7 7 7 7 6 5 3 2 2 1 0 0 -1 -1 -2 -3 -3
11 11 11 11 11 10 10 10 10 10 9 9 9 9 9 9 9 10 10 10 9 9 8 9 7 7 7 7 8 7 6 6 4 3 3 1 0 -1 -2 -2 -3 -3 -4 -4 -4
12 11 11 11 11 11 10 10 10 10 10 8 9 9 9 9 9 9 9 9 9 9 8 7 6 5 5 5 5 5 4 5 4 2 2 1 0 -2 -3 -3 -3 -4 -5 -5 -6
11 11 11 11 11 11 11 10 10 10 8 8 8 8 8 9 8 8 8 8 8 8 7 6 6 5 5 3 3 2 4 5 5 4 1 0 0 -3 -3 -3 -5 -6 -7 -7 -7
11 11 11 11 11 11 10 10 10 9 6 7 7 8 8 8 8 7 8 7 7 7 7 6 5 5 5 4 4 2 4 5 4 3 -1 -1 -2 -4 -4 -7 -7 -7 -8 -8 -8
11 11 11 11 11 10 10 10 10 8 7 7 7 7 7 8 7 7 7 8 7 6 6 5 5 3 3 3 2 1 1 1 0 -1 -1 1 -2 -5 -7 -8 -8 -8 -8 -8 -9
10 11 11 11 11 10 10 10 10 7 7 7 7 7 7 7 7 6 6 6 5 4 3 4 4 3 2 1 0 -1 -1 -1 -3 -4 -3 -2 -4 -7 -7 -7 -7 -8 -9 -9 -9
10 11 11 11 10 10 10 10 8 7 7 7 6 6 6 6 6 6 5 4 4 4 3 4 3 2 1 0 -0 -1 -3 -4 -4 -4 -6 -3 -4 -5 -5 -4 -4 -8 -9 -10 -10
10 10 10 10 10 10 10 10 8 8 7 7 7 6 6 6 5 5 5 3 2 2 2 1 1 2 1 -1 -2 -3 -4 -4 -5 -9 -8 -5 -5 -8 -8 -9 -9 -10 -10 -11 -11
10 10 10 10 10 10 10 9 8 7 7 6 6 6 6 5 5 5 4 3 2 2 1 1 0 1 -0 -2 -3 -4 -6 -7 -7 -7 -10 -11 -7 -8 -9 -9 -11 -11 -11 -11 -11
9 9 9 9 10 9 9 8 7 7 6 6 6 5 5 5 4 4 3 3 2 1 0 0 0 -0 -2 -5 -4 -5 -7 -8 -8 -8 -8 -9 -9 -9 -10 -10 -11 -11 -11 -12 -12
9 9 9 9 9 9 8 7 7 6 6 6 5 5 5 4 4 3 3 2 2 1 -0 -1 -1 -1 -2 -4 -5 -6 -8 -9 -8 -9 -9 -11 -10 -9 -11 -11 -11 -12 -12 -12 -11
8 8 8 8 8 7 7 7 6 6 5 5 5 5 4 4 3 3 2 1 1 1 -0 -1 -2 -3 -4 -5 -7 -8 -9 -9 -9 -10 -11 -10 -11 -11 -11 -12 -11 -11 -11 -11 -11
8 8 8 7 7 7 6 6 5 5 5 5 5 4 3 3 3 2 1 1 0 -1 -1 -2 -3 -4 -4 -7 -7 -8 -10 -10 -9 -10 -11 -11 -12 -12 -12 -12 -11 -11 -11 -11 -10
8 8 7 7 6 6 6 5 5 5 4 4 3 3 3 2 2 1 -0 -1 -1 -2 -2 -3 -5 -5 -4 -6 -8 -10 -10 -10 -9 -10 -11 -11 -11 -12 -11 -11 -10 -11 -11 -11 -10
7 7 7 6 6 5 5 5 4 4 4 3 3 2 2 2 1 1 0 -0 -1 -2 -3 -4 -5 -5 -6 -7 -9 -9 -11 -11 -10 -10 -11 -11 -12 -11 -10 -10 -10 -11 -11 -11 -11
Height
3176 3176 3175 3175 3174 3174 3173 3173 3173 3173 3173 3174 3174 3175 3175 3175 3175 3175 3175 3175 3174 3174 3173 3173 3173 3173 3173 3173 3173 3174 3176 3177 3177 3178 3178 3177 3176 3176 3173 3173 3172 3171 3170 3169 3167
3177 3176 3176 3175 3175 3174 3173 3173 3172 3173 3173 3174 3175 3175 3175 3175 3176 3176 3176 3175 3175 3174 3174 3174 3174 3174 3174 3174 3175 3175 3176 3176 3177 3177 3176 3176 3176 3175 3173 3172 3170 3169 3167 3167 3167
3177 3177 3177 3176 3175 3175 3174 3173 3173 3173 3173 3174 3174 3175 3176 3176 3178 3178 3177 3176 3176 3176 3176 3175 3175 3175 3174 3174 3175 3176 3176 3176 3177 3177 3177 3176 3174 3173 3172 3171 3171 3170 3168 3166 3164
3178 3178 3177 3177 3176 3176 3175 3174 3174 3174 3174 3174 3175 3176 3176 3177 3180 3178 3177 3177 3177 3177 3177 3177 3177 3176 3175 3175 3176 3176 3176 3176 3177 3177 3176 3175 3173 3172 3171 3171 3169 3166 3165 3162 3160
3179 3179 3178 3178 3177 3177 3177 3176 3176 3175 3175 3176 3176 3176 3177 3178 3178 3179 3178 3179 3178 3178 3179 3178 3178 3177 3176 3176 3176 3176 3176 3176 3176 3176 3175 3173 3171 3170 3169 3167 3165 3162 3160 3158 3155
3180 3179 3179 3179 3179 3178 3178 3178 3178 3177 3177 3177 3177 3177 3179 3180 3179 3180 3180 3181 3180 3180 3180 3179 3178 3177 3176 3175 3176 3176 3176 3175 3175 3173 3173 3172 3171 3169 3169 3163 3161 3159 3156 3152 3150
3181 3180 3180 3180 3180 3180 3180 3179 3179 3179 3179 3179 3179 3179 3180 3182 3181 3181 3181 3181 3181 3181 3180 3179 3179 3179 3177 3177 3176 3176 3176 3175 3174 3173 3172 3171 3170 3167 3166 3161 3159 3155 3151 3147 3144
3181 3181 3181 3181 3181 3181 3180 3180 3180 3180 3181 3181 3181 3181 3183 3182 3182 3183 3183 3183 3182 3181 3180 3179 3179 3179 3178 3178 3178 3177 3177 3175 3174 3173 3170 3171 3169 3165 3162 3159 3154 3150 3147 3142 3137
3182 3182 3182 3182 3182 3182 3182 3181 3181 3182 3182 3183 3184 3183 3185 3185 3185 3185 3185 3184 3184 3182 3181 3181 3181 3179 3179 3178 3179 3179 3177 3175 3175 3173 3169 3169 3166 3162 3157 3152 3148 3144 3140 3135 3131
3183 3182 3182 3183 3183 3183 3183 3183 3183 3183 3184 3184 3185 3188 3187 3188 3188 3186 3186 3185 3185 3184 3183 3182 3181 3180 3178 3179 3180 3179 3176 3175 3173 3170 3167 3162 3160 3156 3152 3147 3142 3139 3135 3130 3125
3183 3183 3183 3183 3183 3183 3184 3184 3187 3186 3185 3184 3187 3187 3188 3190 3189 3188 3187 3185 3184 3183 3182 3181 3181 3179 3180 3181 3181 3179 3176 3174 3171 3167 3162 3157 3155 3150 3144 3141 3138 3135 3131 3129 3126
3184 3184 3184 3184 3184 3184 3185 3185 3185 3188 3186 3187 3189 3190 3190 3190 3190 3189 3189 3188 3184 3183 3181 3182 3180 3181 3181 3181 3180 3178 3174 3170 3166 3163 3158 3155 3150 3146 3144 3141 3139 3136 3130 3126 3121
3184 3184 3184 3184 3184 3184 3185 3186 3186 3187 3188 3190 3191 3192 3192 3192 3190 3189 3188 3186 3185 3185 3183 3183 3183 3181 3180 3178 3177 3174 3170 3165 3159 3154 3153 3153 3149 3146 3144 3139 3135 3132 3127 3122 3116
3185 3185 3184 3184 3186 3185 3185 3186 3187 3188 3189 3194 3193 3193 3192 3191 3191 3189 3188 3189 3187 3187 3186 3187 3186 3186 3183 3179 3174 3170 3167 3162 3155 3152 3150 3148 3147 3144 3143 3139 3132 3126 3121 3116 3112
3185 3185 3185 3185 3185 3186 3187 3186 3187 3188 3191 3198 3196 3195 3192 3193 3193 3191 3189 3188 3187 3187 3188 3187 3184 3182 3180 3177 3173 3169 3162 3154 3149 3144 3142 3144 3143 3137 3132 3129 3124 3122 3116 3111 3107
3186 3186 3186 3186 3186 3186 3186 3187 3188 3191 3195 3197 3196 3196 3194 3193 3192 3191 3190 3188 3188 3188 3186 3185 3183 3181 3178 3174 3168 3166 3160 3150 3146 3144 3143 3142 3142 3137 3132 3129 3124 3120 3113 3106 3101
3186 3187 3187 3187 3187 3187 3187 3188 3190 3190 3199 3199 3196 3195 3194 3192 3192 3191 3189 3187 3188 3187 3185 3184 3183 3181 3178 3174 3168 3160 3156 3149 3148 3145 3139 3135 3135 3130 3128 3124 3119 3115 3110 3103 3098
3186 3187 3187 3187 3188 3187 3188 3189 3189 3195 3196 3197 3196 3194 3193 3192 3192 3190 3189 3187 3187 3186 3184 3182 3180 3179 3176 3175 3170 3166 3164 3166 3164 3155 3141 3134 3129 3130 3126 3123 3117 3113 3105 3098 3092
3186 3186 3187 3188 3188 3188 3189 3188 3191 3194 3196 3195 3195 3195 3195 3194 3192 3190 3188 3188 3187 3187 3188 3183 3178 3176 3174 3171 3171 3167 3170 3169 3163 3152 3145 3132 3133 3130 3122 3116 3110 3108 3102 3094 3087
3185 3186 3187 3188 3188 3188 3189 3188 3191 3194 3194 3195 3194 3195 3194 3193 3193 3191 3189 3189 3188 3187 3185 3184 3180 3176 3173 3171 3170 3169 3167 3167 3167 3161 3153 3136 3136 3130 3122 3117 3111 3102 3094 3085 3077
3185 3186 3187 3188 3188 3189 3189 3189 3192 3193 3194 3195 3194 3194 3194 3193 3191 3190 3190 3191 3188 3187 3184 3182 3182 3178 3173 3170 3167 3167 3164 3166 3168 3163 3158 3147 3133 3131 3125 3117 3107 3099 3091 3082 3073
3184 3186 3186 3187 3189 3188 3189 3190 3192 3193 3194 3194 3193 3193 3192 3191 3190 3190 3189 3188 3187 3185 3183 3181 3177 3175 3173 3169 3168 3167 3166 3166 3163 3160 3159 3150 3135 3134 3126 3116 3106 3097 3087 3076 3068
3182 3184 3185 3186 3187 3187 3189 3191 3192 3193 3193 3193 3193 3193 3192 3191 3191 3189 3187 3187 3185 3183 3181 3182 3179 3177 3174 3174 3169 3165 3161 3161 3161 3158 3153 3151 3135 3129 3120 3110 3101 3090 3079 3071 3064
3181 3183 3184 3185 3186 3187 3188 3190 3191 3192 3193 3192 3192 3192 3191 3190 3189 3187 3186 3183 3182 3182 3179 3177 3177 3177 3182 3176 3172 3165 3159 3159 3158 3156 3151 3146 3128 3120 3111 3101 3091 3083 3075 3068 3061
3179 3180 3181 3183 3184 3186 3188 3189 3190 3191 3193 3192 3191 3190 3190 3189 3188 3186 3184 3182 3180 3179 3179 3176 3174 3173 3174 3171 3165 3163 3158 3156 3154 3152 3147 3135 3128 3119 3111 3100 3090 3081 3073 3065 3056
3177 3178 3179 3181 3183 3185 3186 3188 3190 3190 3191 3191 3191 3190 3189 3188 3187 3186 3185 3183 3181 3177 3175 3173 3174 3169 3168 3167 3163 3160 3158 3153 3151 3147 3139 3131 3125 3119 3110 3100 3090 3081 3071 3062 3053
3175 3176 3178 3180 3183 3185 3186 3187 3189 3189 3189 3189 3189 3189 3188 3186 3183 3182 3180 3178 3176 3176 3173 3171 3170 3167 3164 3165 3160 3161 3155 3154 3149 3146 3141 3134 3127 3114 3102 3095 3087 3076 3068 3059 3049
Wind_Speed
7 8 8 7 7 5 3 2 1 0 0 1 2 3 4 5 5 6 6 5 4 4 3 3 2 3 5 6 9 11 6 9 5 2 3 4 5 2 7 8 10 12 12 13 14
9 9 9 9 9 8 7 5 3 1 1 2 2 2 3 4 3 5 4 4 4 4 4 4 6 7 8 7 8 6 5 4 3 3 4 6 7 7 9 12 13 15 16 17 19
9 10 10 10 10 10 9 8 7 5 4 3 2 4 4 3 5 5 4 6 7 7 6 4 6 9 11 9 8 5 4 3 1 1 4 4 8 7 9 14 17 18 19 21 23
10 10 11 11 11 10 11 10 11 9 7 6 5 5 4 4 4 6 8 9 10 9 7 5 7 9 10 9 7 6 5 4 3 5 9 8 7 10 9 10 12 16 18 21 22
10 10 10 11 11 10 10 10 11 11 11 11 9 8 9 10 11 11 13 11 11 10 9 9 8 7 9 9 7 5 6 5 2 5 10 10 9 11 9 11 14 18 21 23 26
8 9 9 9 10 10 10 11 11 11 11 11 11 9 8 8 15 13 12 11 11 12 11 10 8 7 7 7 6 7 4 4 6 11 13 13 13 7 9 16 19 21 25 28 27
6 7 8 8 9 9 10 10 10 10 11 11 14 17 13 14 13 12 12 12 10 7 7 6 6 4 4 8 8 5 4 6 8 14 15 14 10 2 6 16 20 25 28 29 33
5 5 7 7 8 8 9 9 9 10 11 11 11 13 8 12 13 13 10 8 5 3 4 6 6 4 5 7 4 2 5 9 12 14 17 20 1 4 14 18 19 24 28 34 36
4 4 6 8 9 9 9 9 9 11 10 10 7 12 10 12 13 10 7 6 6 6 5 6 5 7 2 4 3 2 8 9 9 16 16 20 23 21 26 18 18 23 26 28 27
5 6 7 9 9 9 9 9 8 8 8 10 6 11 14 13 9 8 8 9 6 5 5 6 8 9 8 4 7 13 18 16 19 22 22 27 18 12 14 18 20 20 20 19 21
7 9 9 10 10 9 9 8 9 10 13 17 17 16 13 9 6 9 8 8 5 5 2 4 5 11 15 16 16 17 16 18 24 17 31 17 16 12 6 9 15 18 18 17 16
9 10 10 11 11 10 8 9 10 12 17 18 14 9 7 6 10 9 9 8 7 4 3 3 11 11 9 10 16 19 17 27 18 28 22 12 7 1 6 10 11 13 15 17 20
9 9 10 11 10 10 9 10 12 14 17 15 11 9 9 5 8 8 10 10 9 7 5 7 9 11 6 14 20 24 25 27 31 31 8 8 3 6 4 6 6 9 15 21 27
10 9 10 11 11 10 9 10 11 8 9 12 10 10 10 6 9 15 13 12 9 10 5 5 11 12 12 19 27 24 27 31 30 22 3 8 4 4 3 7 9 16 22 27 31
10 9 10 11 11 9 9 9 9 6 5 5 10 11 11 11 11 14 14 12 8 8 10 9 8 8 17 25 32 23 28 27 14 13 7 2 2 8 11 10 18 21 23 24 29
8 8 8 9 10 9 10 9 7 4 5 4 8 8 8 10 13 15 15 9 10 7 14 10 11 10 15 21 24 29 33 7 13 5 2 2 18 3 5 8 18 20 24 31 37
6 6 7 8 7 8 8 6 4 7 4 3 5 7 8 14 15 17 14 11 15 7 14 11 9 15 12 27 12 23 32 10 4 4 5 10 17 6 1 15 26 32 34 39 36
6 6 6 7 7 8 6 6 5 7 5 3 5 5 9 15 12 16 10 13 14 19 8 13 8 16 19 26 21 20 23 6 5 4 15 28 8 8 7 29 38 43 45 51 53
7 7 8 7 8 7 6 5 5 7 5 2 4 5 7 10 9 13 13 16 15 19 13 11 6 10 16 20 17 13 15 9 9 13 9 6 2 8 19 36 48 49 59 62 52
8 8 7 8 9 8 5 10 9 6 4 3 3 5 7 9 9 12 13 11 13 17 19 14 8 6 19 12 14 13 11 11 9 5 6 7 15 17 40 44 55 63 58 48 44
9 8 8 9 10 8 9 14 9 5 3 3 3 4 5 9 10 8 11 9 13 15 15 16 11 9 18 9 7 5 20 11 11 9 3 4 4 28 32 50 49 52 48 55 47
11 8 8 7 7 7 10 9 7 5 3 3 3 4 6 8 8 6 8 9 10 15 14 13 8 16 12 3 7 9 13 19 6 7 19 22 20 24 49 43 42 51 49 47 42
11 10 8 6 6 6 8 8 6 4 4 3 3 4 6 8 6 7 10 11 12 13 13 16 10 13 8 4 11 21 22 12 12 12 14 10 19 47 46 44 47 52 47 43 38
11 9 8 7 6 6 6 5 4 4 3 3 3 5 7 8 9 7 10 10 14 14 13 14 9 6 8 16 20 19 16 12 15 9 22 27 44 47 44 51 51 46 39 37 38
10 10 9 9 6 5 5 4 4 4 4 5 5 6 7 8 11 10 12 13 15 13 14 15 7 14 19 18 12 18 5 10 16 20 20 39 38 37 50 44 42 39 39 40 39
9 10 10 8 7 6 5 6 5 5 5 5 6 7 8 9 10 11 13 15 13 15 14 12 12 20 16 5 17 4 4 12 16 26 33 34 33 46 42 41 39 39 38 40 43
8 9 10 11 9 9 9 8 5 5 5 7 8 8 10 11 13 13 13 13 12 10 11 12 19 20 6 16 1 2 12 19 25 31 39 24 40 42 43 44 44 42 43 47 50
Wind_Direction
44 45 44 42 43 42 36 26 24 90 122 88 72 68 64 67 75 99 94 92 76 67 85 96 106 163 151 157 147 153 132 144 156 208 263 293 295 259 264 262 264 270 277 273 268
52 52 54 54 55 55 55 58 66 107 161 137 124 105 89 89 99 100 110 81 64 67 85 115 156 166 145 142 142 154 142 155 180 255 259 269 270 225 252 260 274 282 286 283 288
53 55 58 58 60 60 62 65 65 75 90 112 113 100 102 120 113 98 90 82 76 73 73 102 130 134 114 123 127 118 106 114 120 282 316 300 283 264 243 253 270 280 284 282 280
57 60 61 62 61 62 63 66 66 71 76 74 75 78 82 86 123 74 76 77 76 70 78 92 107 110 105 100 105 87 69 56 77 85 3 331 288 296 289 285 272 269 271 273 275
59 65 66 66 65 68 68 67 65 66 70 73 78 82 75 77 85 82 78 78 81 86 86 86 87 89 99 101 90 88 96 84 94 13 22 12 320 311 314 292 292 288 287 285 285
63 69 72 71 72 69 69 65 65 68 70 73 75 84 95 101 91 90 82 85 87 90 89 87 88 94 107 106 115 124 78 57 352 355 357 355 342 323 335 302 298 295 292 291 291
65 71 78 76 75 70 68 69 67 70 73 73 85 88 84 100 97 94 100 102 92 90 88 69 59 49 146 123 126 129 27 5 339 335 335 338 334 347 276 288 293 297 295 294 292
65 75 84 84 80 74 72 69 66 72 76 79 84 84 98 98 104 103 104 93 78 49 52 76 79 96 140 133 138 79 5 346 332 334 323 337 227 246 317 289 279 275 278 279 280
75 88 95 92 87 81 72 73 73 79 75 78 80 100 99 103 100 102 82 48 6 355 47 92 74 59 91 184 89 359 328 333 342 332 311 316 303 289 286 273 279 273 270 272 278
90 104 97 94 91 89 79 76 75 82 79 91 104 97 102 104 95 73 48 35 21 36 63 85 54 68 103 124 29 346 341 337 344 322 319 322 320 315 288 266 268 260 260 264 273
98 104 98 95 92 86 84 92 75 81 95 95 98 101 106 88 56 36 29 43 35 36 79 40 12 56 52 41 9 350 337 337 338 323 326 330 336 321 294 269 239 239 244 256 268
98 96 92 91 90 90 92 94 99 99 100 99 97 90 81 66 39 15 19 23 14 26 97 67 41 46 46 12 356 347 344 339 344 328 335 338 338 248 215 233 237 247 257 272 283
93 88 91 88 89 91 102 98 106 102 94 90 79 67 48 37 38 34 27 21 26 35 69 43 40 20 348 340 339 350 345 341 328 325 305 338 199 263 231 223 242 277 308 313 317
85 87 90 91 87 97 99 101 119 120 90 58 52 36 26 54 32 25 28 31 34 37 57 12 15 3 347 342 348 347 342 338 323 317 236 304 196 224 269 276 300 320 327 329 328
82 84 93 95 97 95 93 100 109 115 71 36 32 31 43 41 27 28 26 27 39 51 24 12 11 4 346 350 345 338 348 330 321 297 259 26 258 198 242 276 321 335 342 339 336
86 88 91 94 92 96 109 100 102 89 66 51 29 29 36 38 38 32 22 46 50 40 15 19 2 357 345 346 343 336 344 324 304 305 195 189 355 292 293 351 343 346 336 333 332
102 96 98 92 95 103 112 102 87 65 116 38 30 35 37 20 26 23 25 40 38 26 16 10 351 343 333 344 345 343 2 345 339 346 250 277 323 153 37 353 342 334 327 333 336
119 113 109 106 107 103 92 84 74 98 98 81 48 34 30 21 23 19 30 32 36 24 29 6 348 348 340 345 345 353 7 40 296 304 289 307 196 163 313 332 332 332 334 332 329
132 128 117 112 105 92 83 77 97 117 98 49 32 44 24 13 17 11 15 23 21 19 19 353 324 337 334 338 344 347 8 354 287 283 292 288 77 241 274 295 306 323 328 329 328
143 130 128 118 98 97 90 106 117 109 95 60 52 20 10 16 10 10 20 3 6 1 0 348 326 316 339 335 344 353 7 335 334 315 299 315 328 326 326 329 326 327 329 336 333
154 146 137 117 99 99 100 106 105 95 76 44 45 44 20 7 6 17 11 6 350 349 349 347 332 323 333 336 343 302 359 13 318 270 295 304 312 315 325 329 331 331 328 329 334
166 162 147 130 109 111 91 96 100 96 65 59 49 32 18 6 354 9 0 348 344 343 348 343 314 326 335 293 299 312 7 337 322 305 298 292 302 323 328 327 329 332 331 337 336
174 170 156 145 129 103 98 102 93 88 69 42 31 23 12 360 350 339 337 338 338 345 352 350 337 337 346 313 284 316 334 340 320 310 297 315 301 328 328 323 323 333 337 337 340
184 163 157 156 139 102 99 98 95 79 70 30 11 9 354 344 342 323 331 327 333 342 341 347 336 346 310 299 296 316 325 343 352 346 327 321 318 330 332 333 335 340 344 342 341
181 175 169 151 138 121 104 108 85 70 25 3 348 353 347 342 332 324 328 328 332 333 338 344 328 335 335 291 287 316 345 2 348 342 330 325 321 331 333 339 349 348 342 341 342
179 167 156 147 136 115 102 90 63 32 11 1 352 346 342 340 332 326 327 330 330 328 333 346 340 340 348 265 307 189 358 331 330 335 333 329 329 336 336 342 350 345 343 342 339
152 150 144 134 121 109 92 82 60 29 17 355 346 340 333 330 326 318 317 318 311 320 334 347 347 343 330 336 254 281 349 341 332 335 331 331 334 336 339 340 348 348 347 343 338